2021-022AD

Last updated on Thu Apr 22 2021 00:02:03 GMT+0000 (Coordinated Universal Time)

1 47959U 21022AD 21111.44277771 .00000472 00000-0 36821-4 0 9993 2 47959 97.5623 14.7328 0022314 141.7453 334.0108 15.05601883 3290
UTC large
Height (km)
Speed (km/s)
/
Latitude / Longitude
Inclination (degrees)
Orbital Period (minutes)
Azimuth
Elevation
Range (km)
Doppler Factor

Next 0 passes for location: London (51.5072 / 0.1276)

Sorry there are no passes over London.